Dauntless Aviation
Airports North America Canada
CYLW
YLW

Kelowna International Airport

Kelowna, CANADA

Airport Info
Suggest Updated Information for this Airport

Location

Latitude / Longitude: 49°57'21"N / 119°22'40"W
  49°57.366'N / 119°22.68'W
  49.9561 / -119.3780

Nearby radio navigation aids

EX RUTLAND NDB. 335.5° 1.0nm from EX to field.
LW KELOWNA NDB. 147.1° 6.5nm from LW to field.

Runway Information

Runway 16 /34

Dimensions: 7300 x 200 ft.
Surface: ASP
 
Runway 16
Runway 34
Latitude: 49.966 49.946278
Longitude: -119.378961 -119.376461
Elevation: 1409 ft. 1409 ft.
Runway true heading: 166.6 346.6
 

Instrument Procedures

  Airport Diagram
  Parking Areas (Apron 1)
  Parking Areas (Apron 3)
Satellite photo at:
Airport distance calculator
From:
Weather Reports

METAR

CYLW

CYLW 201200Z AUTO 00000KT 9SM FEW028 BKN034 OVC085 08/06 A2940 RMK PRESRR SLP962
CWJV
17.4nm N
CWJV 201200Z AUTO 10005KT 07/05 RMK AO1 SLP957 T00690054 53004
CWUS
25.6nm S
CWUS 201200Z AUTO 28005KT 08/04 RMK AO1 SLP960 T00770035 53003
CYYF
30.4nm S
CYYF 201200Z 18011KT 15SM FEW035 BKN080 OVC140 11/07 A2940 RMK SC2AC3AC3 SLP959 DENSITY ALT 1600FT

TAF

CYLW
TAF CYLW 200638Z 2007/2019 VRB03KT P6SM BKN100 OVC120 BECMG 2017/2019 18010G20KT RMK FCST BASED ON AUTO OBS. NXT FCST BY 201300Z
CYYF
30.4nm S
TAF CYYF 200638Z 2007/2019 18010KT P6SM SCT050 OVC160 BECMG 2016/2018 21010G20KT FM201800 21010G20KT P6SM SCT050 RMK NXT FCST BY 201300Z
Safelog

 

Dauntless Aviation

© 2007-2017 Dauntless Aviation, all rights reserved
Information provided via PilotNav comes from a variety of official and unofficial data sources. As errors are possible, do not use PilotNav for primary flight planning purposes. Verify any information that you receive via PilotNav with current and canonical charts and other official documents. The material in this database is subject to database copyrights held by Dauntless Aviation and may not be copied without the express permission of Dauntless Aviation - licenses for use of part of all of this data are available for purchase; enquire via the Dauntless Aviation helpdesk. A number of mechanisms and markers exist in the database to protect against and identify infringement / copyright. Automated queries against this website are stictly prohibited, and all activity is logged and analyzed.